Regional Weather Roundup
Issued by NWS Wakefield, VA

Home | Current Version | Previous Version | Text Only | Print | Product List | Glossary Off
Versions: 1 2 3 4 5 6 7 8 9 10 11 12 13 14 15 16 17 18 19 20 21 22 23 24 25 26 27 28 29 30 31 32 33 34 35 36 37 38 39 40 41 42 43 44 45 46 47 48 49 50

000
ASUS41 KAKQ 271410
RWRAKQ

REGIONAL WEATHER ROUNDUP
NATIONAL WEATHER SERVICE WAKEFIELD VA
900 AM EST TUE JAN 27 2015

Note: "fair" indicates few or no clouds below 12,000 feet with no
significant weather and/or obstructions to visibility. * = Denotes
station may not report precipitation (e.g., rain,snow,etc.),
thunder or fog.

VAZ042-051-052>054-056-271500-
NORTHERN VIRGINIA

CITY           SKY/WX    TMP DP  RH WIND       PRES   REMARKS
WASH NATIONAL  CLOUDY    32  21  64 NW13G18   29.82S WCI  22
DULLES         PTSUNNY   27  20  75 NW15      29.82R WCI  15
FORT BELVOIR   CLOUDY    29  22  74 NW17      29.83R WCI  17
QUANTICO       CLOUDY    30  22  72 N16G24    29.84R WCI  19
FREDERICKSBRG* CLOUDY    31  26  81 N7        29.82S
STAFFORD*      CLOUDY    29  26  88 CALM      29.86R
WARRENTON      CLOUDY    31  28  86 N13       29.82R WCI  21
CULPEPER*      NOT AVBL
MANASSAS*      CLOUDY    30  27  86 N10G21    29.83R WCI  21
LEESBURG*      CLOUDY    28  25  86 N10G22    29.83R WCI  19
WINCHESTER     LGT SNOW  28  21  74 NW9       29.83S
FRONT ROYAL*   CLOUDY    28  23  80 CALM      29.83R
LURAY*         LGT SNOW  30  27  86 N7        29.83R
$$

VAZ048-049-060>072-079>083-271500-
CENTRAL AND SOUTH CENTRAL VIRGINIA

CITY           SKY/WX    TMP DP  RH WIND       PRES   REMARKS
RICHMOND       LGT SNOW  31  25  78 N15       29.81R FOG     WCI  20
CHESTERFIELD*  CLOUDY    30  18  59 N8        29.82S
PETERSBURG*    LGT SNOW  31  30  94 NW7       29.82S
HANOVER        CLOUDY    30  25  81 CALM      29.83R
TAPPAHANNOCK*  CLOUDY    31  23  73 NW8       29.80R
QUINTON*       CLOUDY    30  24  77 N9G16     29.80R
CHARLOTTSVILLE CLOUDY    30  25  81 CALM      29.80R
GORDONSVILLE*  FOG       28  27  94 CALM      29.81R VSB 1
ORANGE*        LGT SNOW  32  28  86 CALM      29.83R
LOUISA*        LGT SNOW  30  27  86 N5        29.80R
BUMPASS*       CLOUDY    29  25  82 CALM      29.81R
FARMVILLE*     CLOUDY    32  32 100 CALM      29.80S
CREWE*         CLOUDY    30  28  92 CALM      29.81R
FORT PICKETT*  CLOUDY    29  28  96 N5        29.80S
CHASE CITY*    CLOUDY    34  34 100 CALM      29.80R
CLARKSVILLE*   CLOUDY    32  27  80 NW3       29.81R
SOUTH HILL*    CLOUDY    30  26  85 N8        29.86R
LAWRENCEVILLE* CLOUDY    30  28  93 N3        29.80S
EMPORIA*       LGT SNOW  30  28  93 NW9       29.83  VSB 3/4
$$

VAZ088>098-271500-
SOUTHEAST VIRGINIA

CITY           SKY/WX    TMP DP  RH WIND       PRES   REMARKS
NORFOLK        CLOUDY    32  26  78 N17G24    29.76R WCI  21
VIRGINIA BEACH CLOUDY    33  28  81 N16G24    29.75R WCI  23
NORFOLK NAVAL  CLOUDY    34  26  72 N16       29.78R WCI  24
WEST POINT*    CLOUDY    33  26  75 NW9       29.81R
SALUDA*        CLOUDY    30  26  83 NW12G17   29.77S WCI  21
NEWPORT NEWS   CLOUDY    34  26  72 N8        29.78R
LANGLEY AFB    CLOUDY    32  25  74 N12       29.77R WCI  23
FORT EUSTIS    CLOUDY    31  28  87 N13       29.77R WCI  22
WILLIAMSBURG*    N/A     34  28  80 N6G18     29.80R
HR EXEC AP*    CLOUDY    30  25  80 N3        29.80R
FRANKLIN*      FLURRIES  30  27  87 NW9       29.80S
WAKEFIELD      LGT SNOW  30  26  85 VRB6      29.80R FOG
$$

VAZ020-022-025-037-045-271500-
WEST CENTRAL AND SOUTHWEST VIRGINIA

CITY           SKY/WX    TMP DP  RH WIND       PRES   REMARKS
STAUNTON*      PTSUNNY   27  19  72 N7        29.82R
WAYNESBORO*    FAIR      23  15  70 NW5       29.79R
HOT SPRINGS VA SUNNY     12  10  94 W16       29.64R WCI  -5
LYNCHBURG      MOSUNNY   31   9  39 VRB7      29.81R
DANVILLE       CLOUDY    32  13  45 NW12G21   29.83R WCI  23
SOUTH BOSTON*  CLOUDY    32  19  57 NW8       29.82R
MARTINSVILLE   SUNNY     30  15  52 NW6       29.85S
ROANOKE        MOSUNNY   28   9  44 W9        29.85R
BLACKSBURG     SUNNY     22  11  63 W7        29.82S
DUBLIN*        SUNNY     26  13  59 NW9       29.83R
MARION*        MOSUNNY   23  14  70 W10       29.84R WCI  12
HILLSVILLE*    CLOUDY    22  13  70 NW16G23   29.76R WCI   8
RICHLANDS*     CLOUDY    21  14  73 NW5       29.84R
WISE*          CLOUDY    23  23 100 N9        29.86R
ABINGDON*      CLOUDY    28  19  68 N9        29.87R
$$

MDZ021>025-VAZ099-100-271500-
SOUTHERN MARYLAND AND THE DELMARVA PENINSULA

CITY           SKY/WX    TMP DP  RH WIND       PRES   REMARKS
PATUXENT RIVER CLOUDY    30  24  78 NW16      29.78R WCI  19
BAY BRIDGE APT   N/A     32  25  74 NW9       29.79S
LEONARDTOWN    CLOUDY    30  25  80 CALM      29.80R
DOVER          CLOUDY    28  25  86 NW13      29.75R WCI  18
GEORGETOWN     CLOUDY    29  21  72 N9        29.75R
EASTON         CLOUDY    32  28  86 N12       29.81  FOG     WCI  23
CAMBRIDGE      PTSUNNY   32  23  69 N13       29.76S WCI  22
SALISBURY      CLOUDY    32  22  66 N15       29.74R WCI  22
OCEAN CITY     CLOUDY    29  22  75 N20G26    29.73R WCI  16
WALLOPS ISLAND CLOUDY    29  23  78 N12       29.74R WCI  19
ACCOMACK*      CLOUDY    32  23  69 N10G20    29.74S WCI  24
$$

NCZ012>017-030>032-271500-
NORTH CENTRAL AND EASTERN NORTH CAROLINA

CITY           SKY/WX    TMP DP  RH WIND       PRES   REMARKS
ROANOKE RAPIDS CLOUDY    32  30  93 N6        29.81R
RALEIGH        PTSUNNY   34  19  54 NW7       29.82R
ELIZABETH CITY LGT SNOW  30  28  93 NW14      29.77R FOG     WCI  20
AHOSKIE*       LGT SNOW  30  27  88 N13       29.81S WCI  20
EDENTON*       MIX PCPN  32  30  93 NW13      29.78R WCI  22
CURRITUCK*     LGT SNOW  32  29  88 NW9       29.76S
KILL DEVIL HLS CLOUDY    32  32  99 NW10      29.73R FOG     WCI  24
MANTEO         LGT RAIN  32  30  93 NW10G17   29.74S WCI  24
CAPE HATTERAS  CLOUDY    34  31  88 N8G21     29.73R
TARBORO*       FLURRIES  33  31  94 N6        29.83R
GOLDSBORO      CLOUDY    36  35  98 NW7       29.79R
WASHINGTON     CLOUDY    32  28  86 N12       29.80R WCI  23
GREENVILLE     CLOUDY    34  32  93 N12       29.84R
NEW BERN       CLOUDY    37  27  67 N9G18     29.79R
WILMINGTON     CLOUDY    38  36  92 NW13      29.80R
$$

VAZ048-271500-
ELSEWHERE

CITY           SKY/WX    TMP DP  RH WIND       PRES   REMARKS
HARRISBURG PA  PTSUNNY   26  19  74 N17       29.80R WCI  13
BALTIMORE      CLOUDY    29  22  75 NW8       29.79R
ANNAPOLIS      CLOUDY    30  24  78 NW15      29.79R WCI  19
ANDREWS AFB    CLOUDY    28  23  79 NW13      29.79R WCI  18
PHILADELPHIA   LGT SNOW  27  22  81 N14       29.76R WCI  16
HENDERSON NC   CLOUDY    31  27  83 CALM      29.81R
GREENSBORO     MOSUNNY   30  16  56 NW5       29.82R
ROCKY MOUNT    CLOUDY    34  30  85 N9        29.82R
$$

VAZ100-271500-
MARINE

STATION/POSITION TIME  TEMP    WIND        PRES    WAVE   SWELL
                       AIR SEA DIR/SP/G            HT/PER HT/PER
                 (UTC) (F)     (DEG/KT/KT) (MB)    (FT/S) (FT/S)
BRANDYWINE LGT   1400   29 37  360/ 28/ 32 1006.4R
CAPE MAY NJ      1400   28 38  360/  2/  7 1006.1R
LEWES DE         1400   30 36  360/ 23/ 30 1006.7R
15NM E FENWICK I 1400   29 42              1004.9R  13/12
OCEAN-CITY-INLET 1400   30 38  360/ 18/ 23 1006.0R
WACHAPREAGUE VA  1400   30 41  330/  6/ 10 1006.9S
THOMAS POINT MD  1400   29 36  330/ 13/ 15 1009.8R
GOOSES REEF MD   1400   31 37  VRB 17/ 21  1007.6R   2/ 3
COVE POINT MD    1400   29     350/ 19/ 23 1008.1R
SOLOMONS ISLAND  1400      38                N/A
BISHOPS HEAD MD  1400   30 36  340/ 14/ 20 1007.4R
PINEY POINT MD   1400          360/ 16/ 19   N/A
POTOMAC MD       1400   31 38  350/ 14/ 17 1007.2R   2/ 3
CAMBRIDGE MD     1400   30 36  350/ 15/ 18 1008.0R
LEWISETTA VA     1400   31 38  350/ 15/ 21 1008.3R
RAPPAHANNOCK LGT 1400          330/ 24/ 26 1007.7R
STINGRAY PT      1400   31 39  340/ 16/ 21 1008.5R   2/ 3
YORK RVR RNG VA  1400   31     350/ 18/ 21 1007.1R
JAMESTOWN VA     1400   30 41  350/ 12/ 16   N/A     0
DOMINION TERM VA 1400   31     340/  3/ 10 1008.1R
KIPTOPEKE VA     1400      45  360/ 12/ 17   N/A
CHES BAY BRIDGE  1400   32 41  340/ 20/ 24 1007.1R
CAPE HENRY VA    1400   32     340/ 22/ 28 1005.8S
CHESAPEAKE LGHT  1300   33     340/ 25/ 27 1006.8R
WILLOUBY STN VA  1400   31     350/ 13/ 16 1008.3R
S CRANEY ISL VA  1400          350/ 10/ 14 1008.0R
CAPE HENRY BUOY  1400      44                N/A     8/11   3/11
1ST LANDING BUOY 1400   33 42  340/ 21/ 25 1007.1R   5/ 5
CAPE CHARLES BUO 1400      42                N/A     8/11   8/11
OFFSHORE WE BUOY 1400      46                N/A    10/10  10/10
64NM E OF VA BCH 1400   37 51  340/ 21/ 27 1004.4R  12/12  10/12
DUCK PIER NC     1400   33 43  330/ 17/ 22 1005.8R
44100 DUCK FRF   1400      45                N/A    11/11   7/11
44056 DUCK FRF   1400      44                N/A     9/11   5/11
OREGON INLET NC  1400   33 45  320/ 16/ 22 1006.5R
HATTERAS NC      1400   36 49  330/ 21/ 25 1006.7R


USA.gov is the U.S. government's official web portal to all federal, state and local government web resources and services.